Date String (YYYY-MM-DD hh:mm:ss) UTC,Instrument flags,Ambient pressure (hPa),Sample flow (lpm),Bypass flow (lpm),Sample temperature (°C),Ambient temperature (°C),ASC tube jacket temperature (°C),LED temperature (°C),Box temperature (°C),Sample RH (%),Span deviation,Mass concentration (μg/m³),Mass concentration (μg/m³),Mass concentration (μg/m³)
DateTimeUTC,F1_M11,P_M11,Q1_M11,Q2_M11,T1_M11,T2_M11,T3_M11,T4_M11,T5_M11,U1_M11,ZSPAN_M11,X0_M11,X2_M11,X1_M11
2022-11-28 18:00:00,,0810.9,5.00,0.00,23.5,22.2,00.0,32.4,25.3,08.8,0000.0,0001.76,0000.45,0000.33
2022-11-28 18:01:00,,0810.8,4.99,0.00,23.5,22.2,00.0,32.4,25.3,08.9,0000.0,0000.85,0000.47,0000.33
2022-11-28 18:02:00,,0810.7,5.01,0.00,23.5,22.2,00.0,32.4,25.3,08.7,0000.0,0000.89,0000.51,0000.33
2022-11-28 18:03:00,,0810.7,5.01,0.00,23.5,22.2,00.0,32.4,25.2,08.9,0000.0,0001.00,0000.53,0000.34
2022-11-28 18:04:00,,0810.7,5.00,0.00,23.5,22.2,00.0,32.4,25.2,08.9,0000.0,0001.16,0000.54,0000.34
2022-11-28 18:05:00,,0810.6,5.00,0.00,23.5,22.1,00.0,32.4,25.1,09.1,0000.0,0002.47,0000.55,0000.34
2022-11-28 18:06:00,,0810.6,5.00,0.00,23.5,22.1,00.0,32.4,25.2,08.9,0000.0,0002.41,0000.55,0000.34
2022-11-28 18:07:00,,0810.6,5.00,0.00,23.5,22.2,00.0,32.4,25.3,08.9,0000.0,0002.38,0000.56,0000.35
2022-11-28 18:08:00,,0810.6,5.00,0.00,23.5,22.1,00.0,32.4,25.3,09.1,0000.0,0002.56,0000.57,0000.35
2022-11-28 18:09:00,,0810.5,5.00,0.00,23.5,22.1,00.0,32.4,25.2,08.9,0000.0,0002.58,0000.57,0000.35
2022-11-28 18:10:00,,0810.6,5.00,0.00,23.5,22.1,00.0,32.4,25.2,08.8,0000.0,0002.55,0000.55,0000.35
2022-11-28 18:11:00,,0810.5,5.00,0.00,23.5,22.2,00.0,32.4,25.2,09.1,0000.0,0002.63,0000.55,0000.35
2022-11-28 18:12:00,,0810.4,4.99,0.00,23.5,22.2,00.0,32.4,25.3,09.0,0000.0,0002.58,0000.52,0000.35
2022-11-28 18:13:00,,0810.5,4.99,0.00,23.5,22.2,00.0,32.4,25.3,08.7,0000.0,0002.53,0000.49,0000.35
2022-11-28 18:14:00,,0810.5,5.00,0.00,23.5,22.2,00.0,32.4,25.3,08.8,0000.0,0002.43,0000.46,0000.34
2022-11-28 18:15:00,,0810.4,5.02,0.00,23.5,22.2,00.0,32.4,25.4,08.9,0000.0,0002.30,0000.49,0000.34
2022-11-28 18:16:00,,0810.4,4.99,0.00,23.5,22.2,00.0,32.4,25.4,08.8,0000.0,0001.11,0000.50,0000.35
2022-11-28 18:17:00,,0810.4,5.01,0.00,23.5,22.1,00.0,32.4,25.3,08.6,0000.0,0001.10,0000.49,0000.35
2022-11-28 18:18:00,,0810.4,5.00,0.00,23.5,22.1,00.0,32.4,25.3,08.6,0000.0,0001.09,0000.49,0000.35
2022-11-28 18:19:00,,0810.3,4.98,0.00,23.5,22.1,00.0,32.4,25.2,08.8,0000.0,0000.97,0000.49,0000.34
2022-11-28 18:20:00,,0810.3,5.01,0.00,23.5,22.1,00.0,32.4,25.2,08.8,0000.0,0000.95,0000.50,0000.35
2022-11-28 18:21:00,,0810.3,4.99,0.00,23.5,22.0,00.0,32.4,25.1,08.7,0000.0,0001.11,0000.49,0000.35
2022-11-28 18:22:00,,0810.3,4.99,0.00,23.5,22.0,00.0,32.4,25.1,08.7,0000.0,0001.44,0000.54,0000.35
2022-11-28 18:23:00,,0810.4,5.01,0.00,23.4,22.0,00.0,32.4,25.1,08.8,0000.0,0001.47,0000.55,0000.35
2022-11-28 18:24:00,,0810.3,4.99,0.00,23.4,22.0,00.0,32.4,25.1,08.7,0000.0,0001.48,0000.56,0000.35
2022-11-28 18:25:00,,0810.3,5.00,0.00,23.4,22.0,00.0,32.4,25.2,08.7,0000.0,0001.46,0000.55,0000.35
2022-11-28 18:26:00,,0810.2,5.01,0.00,23.4,22.0,00.0,32.4,25.1,08.7,0000.0,0001.38,0000.52,0000.34
2022-11-28 18:27:00,,0810.2,4.99,0.00,23.4,21.9,00.0,32.4,25.1,08.8,0000.0,0001.39,0000.53,0000.35
2022-11-28 18:28:00,,0810.2,4.99,0.00,23.4,21.9,00.0,32.4,25.1,08.8,0000.0,0001.44,0000.54,0000.35
2022-11-28 18:29:00,,0810.2,4.99,0.00,23.4,21.9,00.0,32.4,25.0,09.0,0000.0,0001.48,0000.56,0000.36
2022-11-28 18:30:00,,0810.2,5.00,0.00,23.4,21.9,00.0,32.4,25.1,09.0,0000.0,0001.60,0000.59,0000.37
2022-11-28 18:31:00,,0810.2,5.00,0.00,23.4,21.9,00.0,32.4,25.1,08.9,0000.0,0001.67,0000.61,0000.37
2022-11-28 18:32:00,,0810.2,5.00,0.00,23.4,21.9,00.0,32.3,25.1,09.0,0000.0,0001.42,0000.62,0000.38
2022-11-28 18:33:00,,0810.2,4.99,0.00,23.4,21.9,00.0,32.3,25.1,09.0,0000.0,0001.13,0000.59,0000.38
2022-11-28 18:34:00,,0810.1,5.01,0.00,23.4,21.9,00.0,32.3,25.1,09.0,0000.0,0001.09,0000.58,0000.39
2022-11-28 18:35:00,,0810.2,4.99,0.00,23.3,21.9,00.0,32.3,25.0,08.9,0000.0,0001.08,0000.57,0000.39
2022-11-28 18:36:00,,0810.1,5.02,0.00,23.3,21.9,00.0,32.3,25.1,09.2,0000.0,0001.10,0000.58,0000.39
2022-11-28 18:37:00,,0810.1,4.99,0.00,23.3,21.9,00.0,32.3,25.1,09.0,0000.0,0001.15,0000.59,0000.38
2022-11-28 18:38:00,,0810.1,5.00,0.00,23.3,21.8,00.0,32.3,25.0,09.1,0000.0,0001.14,0000.59,0000.38
2022-11-28 18:39:00,,0810.1,5.00,0.00,23.3,21.8,00.0,32.3,25.1,09.1,0000.0,0001.17,0000.59,0000.38
2022-11-28 18:40:00,,0810.0,5.00,0.00,23.3,21.8,00.0,32.3,25.0,09.0,0000.0,0001.30,0000.64,0000.38
2022-11-28 18:41:00,,0810.0,5.00,0.00,23.3,21.7,00.0,32.3,25.0,08.9,0000.0,0001.21,0000.63,0000.38
2022-11-28 18:42:00,,0810.0,4.98,0.00,23.2,21.7,00.0,32.2,25.0,09.1,0000.0,0001.33,0000.64,0000.38
2022-11-28 18:43:00,,0810.1,5.01,0.00,23.2,21.7,00.0,32.2,25.0,09.1,0000.0,0001.47,0000.68,0000.38
2022-11-28 18:44:00,,0810.0,5.00,0.00,23.2,21.7,00.0,32.2,25.0,09.2,0000.0,0001.48,0000.69,0000.39
2022-11-28 18:45:00,,0809.9,5.00,0.00,23.2,21.7,00.0,32.2,24.9,09.1,0000.0,0001.48,0000.69,0000.40
2022-11-28 18:46:00,,0810.0,5.01,0.00,23.2,21.7,00.0,32.2,24.9,09.0,0000.0,0001.50,0000.70,0000.40
2022-11-28 18:47:00,,0809.9,4.98,0.00,23.2,21.6,00.0,32.2,24.9,09.0,0000.0,0001.53,0000.71,0000.40
2022-11-28 18:48:00,,0809.7,5.01,0.00,23.1,21.6,00.0,32.2,24.9,09.0,0000.0,0001.47,0000.69,0000.41
2022-11-28 18:49:00,,0809.8,5.01,0.00,23.1,21.6,00.0,32.2,24.9,09.0,0000.0,0001.53,0000.72,0000.41
2022-11-28 18:50:00,,0809.9,4.99,0.00,23.1,21.6,00.0,32.2,24.9,09.0,0000.0,0001.62,0000.74,0000.42
2022-11-28 18:51:00,,0809.8,5.00,0.00,23.1,21.6,00.0,32.2,24.8,09.1,0000.0,0001.64,0000.72,0000.42
2022-11-28 18:52:00,,0809.6,5.00,0.00,23.1,21.6,00.0,32.1,24.9,09.2,0000.0,0001.65,0000.72,0000.42
2022-11-28 18:53:00,,0809.7,5.02,0.00,23.1,21.6,00.0,32.1,24.9,09.1,0000.0,0001.82,0000.72,0000.43
2022-11-28 18:54:00,,0809.7,5.00,0.00,23.1,21.6,00.0,32.1,24.9,09.2,0000.0,0002.94,0000.67,0000.43
2022-11-28 18:55:00,,0809.7,4.99,0.00,23.1,21.6,00.0,32.1,24.9,09.2,0000.0,0002.96,0000.66,0000.42
2022-11-28 18:56:00,,0809.7,5.00,0.00,23.1,21.6,00.0,32.1,24.9,09.1,0000.0,0003.01,0000.67,0000.41
2022-11-28 18:57:00,,0809.6,4.99,0.00,23.1,21.6,00.0,32.1,24.9,09.2,0000.0,0003.07,0000.69,0000.42
2022-11-28 18:58:00,,0809.6,5.01,0.00,23.1,21.6,00.0,32.1,24.9,09.1,0000.0,0003.08,0000.69,0000.41
2022-11-28 18:59:00,,0809.6,5.01,0.00,23.1,21.5,00.0,32.1,24.8,09.2,0000.0,0003.11,0000.71,0000.41
